Погода в Кае

Россия / Кировская область     59°57′37″N   52°58′33″E
темп.,
°C
ветер,
м/с
пор.,
м/с
влажн.,
%
обл.,
%
осадки,
мм/ч
давл.,
гПа
погр.,
м
24 сентября, пт
пт2400:00+4юв269448 0.0 1025111
03:00+5юв2785100 0.0 1024156
06:00+6вюв397998 0.0 1022237
09:00+10юв41065100 0.0 1022411
12:00+12ююв4857100 0.0 1021736
15:00+10юв41069100 0.0 1020546
18:00+9юв41075100 0.0 1020475
21:00+8ююв41181100 0.0 1020443
25 сентября, сб
сб2500:00+7ююв31090100 0.7 1020445
03:00+6юв41095100 2.3 1019444
06:00+7юв41094100 0.6 1018558
09:00+7юв41194100 2.3 1018550
12:00+7юв31192100 0.3 1018664
15:00+8вюв31190100 0.4 1017485
18:00+7в2993100 0.0 1017344
21:00+7юв5138793 0.0 1016481
26 сентября, вс
вс2600:00+8вюв41189100 0.3 1016377
03:00+7вюв3993100 1.1 1016390
06:00+6в41295100 2.3 1015627
09:00+7вюв51291100 3.4 1016657
12:00+9вюв51181100 0.0 1016835
15:00+10вюв51174100 0.0 10171114
18:00+8вюв61179100 0.0 10181130
21:00+6в61290100 0.3 10201124
27 сентября, пн
пн2700:00+4в51190100 0.8 1021832
03:00+3в41197100 1.8 1022637
06:00+3в41094100 0.2 1024611
09:00+4в4988100 0.3 1026641
12:00+7в4657100 0.0 1026999
15:00+9в365320 0.0 10271201
18:00+3всв2577100 0.0 102891
21:00+3всв2879100 0.0 1029211
28 сентября, вт
вт2800:00+3в1179100 0.0 102933
03:00+2в1182100 0.0 102910
06:00+2в1182100 0.0 102926
09:00+5вюв1267100 0.0 1029394
12:00+8ссв1154100 0.0 10281035
15:00+7с235799 0.0 10271194
18:00+5ссв1169100 0.0 102815
21:00+4с1173100 0.0 102810